Temp
8 9 9 9 8 10 12 14 13 11 9 8 8 9 9 8 9 9 8 8 7 7 7 7 7 7 6 6 6 6 6 6 6 6 6 6 6 6 5 5 5 5 5 5 5 5 5 5 5
8 8 8 8 10 12 14 14 10 9 7 7 7 7 7 7 8 8 8 6 6 6 6 6 6 6 6 5 5 5 6 6 6 6 5 5 5 5 5 5 5 5 5 5 5 5 5 5 5
8 8 7 9 11 12 14 11 8 7 7 7 6 7 7 6 8 7 7 6 6 6 5 5 6 6 6 5 5 6 6 5 5 5 5 5 5 5 5 5 4 4 4 4 4 4 4 4 4
8 8 8 9 11 13 12 9 8 8 7 6 7 7 5 5 6 6 6 6 5 5 5 5 5 6 5 5 5 5 5 5 5 5 5 5 5 4 4 4 4 4 4 4 4 4 4 4 4
8 8 9 11 11 12 11 8 8 7 6 6 6 7 5 4 5 5 5 5 5 4 4 4 5 5 5 5 5 6 5 5 5 5 4 4 4 4 4 4 4 4 4 3 3 3 3 3 3
7 8 10 11 12 11 10 8 7 7 7 7 6 5 5 5 5 5 5 5 4 4 4 4 5 5 5 5 5 5 5 5 4 4 4 4 4 4 4 4 4 4 3 3 3 3 2 2 2
7 9 10 11 10 8 10 8 7 6 7 6 6 6 5 5 5 4 4 5 3 3 3 4 5 5 5 5 5 5 5 4 4 4 4 4 3 3 3 3 3 3 3 3 2 2 2 2 2
8 9 10 11 9 7 8 8 7 6 5 5 6 5 4 5 5 4 4 3 3 4 4 4 4 4 5 5 5 5 4 4 4 4 4 3 3 3 3 3 3 2 2 2 2 2 2 2 2
7 8 10 10 7 8 8 6 6 6 5 6 6 5 5 5 4 5 5 4 4 4 4 4 4 5 5 5 5 4 4 4 3 3 3 3 3 2 2 2 2 2 1 1 1 1 2 2 2
7 9 11 9 9 6 7 7 6 6 6 6 5 5 6 5 5 5 5 5 4 4 4 4 5 5 5 5 4 4 3 3 3 3 3 2 2 2 2 2 1 1 1 1 1 1 1 1 1
8 9 9 9 9 8 7 6 6 7 6 6 6 6 6 5 5 5 5 4 4 4 4 5 5 5 5 4 4 3 3 3 3 3 3 2 2 2 2 1 1 1 1 1 1 1 1 1 1
8 9 9 9 7 7 7 7 6 5 6 6 6 6 6 6 5 5 4 4 5 4 4 5 5 4 4 4 3 3 1 3 2 2 2 1 1 1 1 1 0 0 0 -0 0 -0 0 1 1
8 9 8 8 6 6 6 6 6 6 6 6 6 6 6 5 5 3 3 4 4 5 5 4 4 4 4 3 3 3 2 2 1 1 1 1 1 1 1 0 -0 -1 -0 -0 0 0 0 0 0
8 8 8 8 7 7 7 7 6 7 7 5 7 5 4 4 4 3 3 3 4 4 4 4 4 4 3 3 3 2 2 1 1 1 1 1 1 1 0 -0 -0 -0 0 -0 0 0 0 0 -0
8 8 8 7 8 7 7 8 7 7 6 5 5 5 5 4 4 3 3 4 4 4 4 4 4 4 4 3 3 3 2 1 2 2 2 2 0 0 -0 -0 -1 -1 -0 -0 0 -0 -1 -1 -1
8 9 8 8 8 8 8 9 8 7 6 6 5 5 5 4 4 4 5 4 4 4 4 4 4 3 4 3 3 2 2 2 2 2 1 0 -0 0 -0 -0 -0 -1 -0 -0 -1 -1 -1 -1 -1
8 9 9 8 8 8 8 7 8 7 6 6 6 5 5 4 4 4 5 4 4 5 4 4 4 3 3 2 1 1 0 0 1 1 1 0 0 -0 -0 -0 -0 -0 -1 -1 -1 -1 -1 -1 -1
8 9 9 9 8 9 9 9 8 8 7 6 6 5 4 5 5 6 5 4 4 4 4 4 4 3 2 2 2 1 0 1 1 0 0 1 0 -0 -0 -0 -0 -1 -2 -2 -2 -2 -2 -2 -2
8 9 10 9 8 9 9 9 7 8 7 6 6 5 4 6 5 5 5 5 4 4 4 4 3 3 2 2 2 1 1 1 1 1 0 0 -0 -0 -0 -1 -1 -1 -2 -1 -1 -1 -2 -2 -2
9 9 9 8 8 8 9 9 7 7 7 7 6 5 5 4 6 5 5 4 4 4 4 4 3 2 2 2 1 1 1 1 1 0 -0 -1 -1 -1 -1 -1 -2 -2 -2 -3 -3 -2 -3 -3 -3
9 9 9 9 8 8 9 9 8 8 7 6 6 5 5 4 6 6 5 5 5 4 4 4 3 2 2 2 1 1 1 0 -0 -1 -1 -1 -2 -2 -2 -2 -2 -3 -3 -3 -4 -4 -4 -4 -4
9 9 9 9 8 9 9 10 9 8 9 8 8 6 5 4 4 6 5 5 5 4 4 3 3 2 2 1 0 -0 -1 -2 -2 -2 -2 -3 -2 -3 -3 -3 -3 -3 -4 -4 -4 -4 -5 -5 -6
7 8 8 9 9 8 9 10 8 7 7 7 7 7 4 4 5 6 6 5 4 4 3 3 2 1 1 0 -0 -1 -1 -1 -2 -3 -3 -3 -3 -3 -3 -3 -4 -4 -4 -4 -5 -5 -6 -7 -7
8 7 8 8 9 10 10 10 11 9 9 7 5 4 4 4 5 5 5 4 4 4 3 3 2 1 0 0 -0 -0 -1 -1 -2 -2 -2 -3 -3 -4 -4 -4 -5 -5 -5 -6 -6 -7 -8 -9 -10
7 8 9 8 9 10 9 9 10 10 8 8 5 4 3 5 5 5 5 4 3 3 2 2 1 1 1 -0 -0 -1 -1 -1 -2 -2 -3 -3 -4 -4 -4 -4 -5 -5 -6 -6 -7 -8 -9 -10 -11
8 8 9 8 9 10 8 9 10 8 8 6 5 3 3 5 5 4 4 3 3 2 2 2 1 1 0 -0 -0 -1 -1 -2 -2 -3 -3 -4 -4 -4 -4 -5 -5 -6 -6 -7 -8 -10 -10 -11 -11
8 7 8 8 7 7 9 10 8 8 6 5 5 3 3 4 4 4 3 3 2 2 2 1 1 0 0 -0 -1 -1 -2 -2 -3 -3 -3 -3 -4 -5 -5 -6 -6 -7 -7 -8 -9 -10 -11 -12 -12
6 7 7 7 7 8 11 10 10 7 6 5 5 3 2 2 2 3 3 3 2 2 2 1 0 0 -0 -1 -1 -1 -2 -3 -3 -3 -3 -4 -5 -5 -6 -6 -7 -7 -8 -9 -9 -11 -12 -12 -12
6 6 7 7 7 8 9 10 7 7 6 5 5 4 3 2 1 1 2 3 2 2 2 1 0 -0 -1 -1 -1 -2 -2 -3 -3 -3 -5 -5 -6 -6 -6 -7 -7 -8 -9 -9 -10 -12 -13 -13 -13
6 7 7 7 8 6 6 8 7 6 6 5 5 4 3 2 2 1 1 2 2 2 1 1 0 -0 -1 -1 -1 -2 -3 -3 -4 -5 -5 -6 -6 -6 -7 -7 -8 -9 -10 -10 -11 -12 -12 -13 -13
Height
3147 3149 3149 3151 3157 3149 3141 3137 3135 3138 3141 3142 3142 3142 3142 3139 3142 3147 3142 3143 3147 3151 3154 3157 3160 3163 3165 3167 3168 3170 3171 3172 3174 3174 3173 3173 3173 3173 3173 3173 3173 3172 3171 3171 3171 3170 3169 3168 3167
3145 3147 3149 3151 3152 3141 3134 3132 3134 3134 3139 3138 3139 3138 3139 3141 3140 3140 3142 3143 3146 3151 3155 3156 3160 3162 3164 3166 3168 3169 3171 3172 3173 3172 3173 3173 3174 3174 3173 3173 3173 3173 3172 3172 3171 3170 3168 3167 3166
3144 3146 3151 3149 3145 3139 3134 3133 3134 3136 3139 3137 3141 3136 3137 3140 3140 3140 3142 3143 3145 3148 3151 3156 3160 3162 3164 3165 3166 3168 3170 3171 3172 3172 3173 3173 3174 3174 3174 3174 3174 3173 3173 3172 3170 3170 3169 3168 3168
3143 3146 3149 3146 3139 3136 3138 3137 3138 3140 3139 3140 3138 3137 3139 3139 3140 3141 3142 3145 3146 3148 3150 3156 3158 3162 3163 3165 3166 3168 3168 3171 3171 3172 3172 3173 3174 3174 3174 3174 3174 3173 3173 3173 3171 3170 3170 3167 3167
3142 3146 3145 3141 3137 3136 3139 3138 3137 3135 3137 3140 3140 3138 3137 3139 3142 3140 3144 3146 3145 3145 3148 3152 3157 3160 3162 3164 3165 3167 3168 3170 3171 3171 3173 3174 3174 3174 3175 3175 3174 3174 3173 3172 3171 3170 3170 3169 3166
3143 3145 3141 3135 3132 3135 3139 3134 3136 3136 3138 3139 3143 3139 3136 3135 3140 3140 3142 3141 3142 3145 3143 3150 3157 3161 3162 3164 3165 3166 3167 3169 3171 3171 3173 3174 3175 3175 3176 3176 3175 3173 3172 3171 3171 3169 3168 3168 3166
3140 3142 3138 3132 3135 3136 3137 3136 3136 3134 3138 3140 3141 3141 3139 3138 3138 3136 3137 3135 3136 3135 3144 3152 3159 3161 3162 3163 3164 3166 3168 3168 3170 3172 3173 3175 3176 3176 3176 3175 3174 3173 3172 3170 3170 3169 3167 3166 3165
3140 3140 3135 3132 3133 3134 3135 3135 3133 3136 3135 3137 3141 3139 3140 3138 3137 3135 3135 3133 3130 3146 3149 3154 3159 3161 3161 3162 3163 3166 3167 3169 3171 3172 3174 3175 3176 3176 3175 3175 3174 3173 3172 3169 3169 3168 3166 3165 3164
3137 3139 3132 3129 3127 3128 3133 3133 3137 3137 3134 3136 3139 3141 3137 3138 3138 3138 3139 3142 3145 3148 3147 3154 3158 3159 3160 3162 3164 3166 3168 3170 3170 3172 3173 3174 3175 3174 3173 3174 3173 3172 3172 3169 3168 3167 3165 3164 3161
3135 3136 3131 3129 3124 3124 3131 3134 3133 3136 3136 3138 3138 3140 3138 3138 3139 3141 3143 3145 3148 3151 3154 3156 3158 3159 3160 3162 3164 3166 3168 3169 3170 3171 3173 3173 3174 3174 3174 3173 3172 3171 3170 3169 3167 3165 3163 3162 3160
3133 3132 3130 3132 3133 3131 3131 3132 3132 3136 3138 3140 3142 3138 3139 3139 3142 3144 3146 3149 3151 3153 3155 3157 3159 3159 3160 3162 3164 3165 3167 3169 3171 3172 3172 3173 3174 3174 3172 3171 3171 3169 3168 3166 3164 3162 3160 3159 3156
3132 3132 3133 3132 3130 3129 3133 3134 3135 3138 3136 3140 3140 3139 3140 3142 3144 3147 3148 3151 3152 3154 3155 3156 3157 3158 3160 3162 3164 3165 3167 3168 3170 3171 3171 3173 3173 3172 3171 3170 3169 3167 3166 3164 3162 3159 3157 3155 3152
3131 3132 3133 3132 3131 3131 3133 3134 3135 3135 3141 3142 3139 3139 3141 3143 3145 3148 3150 3151 3152 3153 3154 3155 3157 3158 3160 3162 3163 3164 3167 3168 3170 3171 3172 3172 3172 3172 3169 3167 3166 3165 3163 3160 3158 3156 3152 3150 3147
3131 3132 3133 3134 3134 3135 3134 3136 3129 3137 3140 3140 3139 3140 3143 3145 3150 3151 3152 3152 3153 3154 3155 3156 3158 3159 3160 3161 3162 3163 3165 3165 3168 3169 3170 3170 3170 3167 3165 3164 3162 3161 3159 3156 3154 3152 3149 3145 3142
3130 3131 3133 3135 3135 3135 3134 3137 3136 3137 3141 3141 3143 3146 3147 3149 3150 3152 3153 3153 3155 3156 3157 3157 3159 3160 3159 3159 3161 3161 3161 3164 3166 3168 3165 3165 3163 3163 3160 3159 3158 3155 3155 3152 3149 3146 3142 3138 3136
3130 3131 3131 3134 3135 3136 3135 3136 3137 3139 3142 3144 3145 3147 3149 3150 3151 3151 3153 3154 3155 3156 3157 3158 3158 3159 3160 3160 3159 3160 3162 3164 3165 3161 3159 3159 3158 3158 3157 3155 3154 3151 3149 3147 3143 3139 3136 3132 3129
3129 3128 3129 3132 3133 3134 3138 3138 3137 3140 3142 3145 3147 3148 3149 3149 3151 3151 3152 3154 3155 3155 3156 3157 3158 3159 3159 3159 3156 3157 3157 3159 3156 3156 3157 3156 3155 3154 3153 3151 3149 3147 3144 3140 3137 3134 3130 3125 3121
3127 3127 3129 3127 3132 3133 3134 3136 3138 3140 3143 3145 3147 3148 3149 3149 3150 3150 3151 3153 3154 3154 3155 3155 3156 3156 3156 3156 3156 3150 3152 3155 3153 3153 3154 3152 3152 3150 3149 3146 3145 3143 3139 3135 3130 3127 3122 3117 3112
3128 3127 3125 3127 3131 3132 3134 3136 3138 3139 3141 3144 3145 3146 3147 3148 3148 3149 3150 3151 3152 3151 3153 3153 3152 3153 3153 3153 3152 3150 3151 3151 3151 3150 3150 3148 3147 3146 3145 3142 3139 3137 3132 3126 3122 3117 3114 3110 3105
3127 3126 3126 3129 3130 3132 3132 3134 3135 3136 3139 3142 3143 3143 3145 3146 3146 3148 3149 3150 3150 3149 3149 3150 3150 3150 3150 3149 3148 3149 3149 3149 3148 3146 3145 3145 3144 3142 3139 3137 3132 3128 3126 3120 3114 3111 3105 3101 3095
3126 3125 3126 3128 3129 3130 3131 3131 3131 3132 3135 3137 3139 3141 3142 3143 3142 3144 3145 3146 3145 3146 3146 3145 3145 3147 3147 3147 3147 3147 3147 3146 3144 3143 3142 3141 3138 3135 3132 3129 3126 3121 3116 3112 3106 3099 3094 3089 3085
3125 3126 3127 3127 3127 3126 3127 3122 3127 3128 3129 3132 3134 3136 3139 3139 3138 3139 3140 3140 3140 3141 3142 3143 3143 3143 3143 3143 3143 3144 3144 3142 3140 3138 3135 3131 3131 3127 3124 3119 3116 3112 3107 3102 3096 3092 3085 3080 3074
3124 3125 3127 3127 3124 3125 3122 3123 3117 3130 3127 3126 3128 3130 3132 3132 3133 3134 3135 3136 3137 3138 3139 3140 3140 3140 3140 3140 3140 3140 3139 3137 3135 3132 3129 3128 3122 3119 3116 3112 3107 3103 3098 3092 3087 3080 3075 3070 3065
3125 3126 3127 3126 3123 3120 3118 3120 3114 3118 3122 3124 3124 3126 3127 3128 3129 3130 3132 3132 3133 3135 3136 3136 3136 3135 3136 3136 3136 3135 3133 3131 3128 3126 3124 3120 3116 3112 3108 3103 3098 3093 3088 3082 3076 3071 3067 3060 3054
3127 3126 3122 3122 3119 3119 3118 3119 3118 3118 3119 3122 3121 3121 3123 3124 3126 3127 3128 3129 3131 3132 3133 3132 3132 3132 3132 3131 3131 3129 3127 3125 3122 3120 3116 3113 3109 3106 3102 3097 3091 3086 3080 3074 3068 3061 3056 3051 3047
3124 3124 3123 3118 3118 3116 3117 3117 3114 3115 3116 3118 3119 3119 3120 3121 3123 3124 3125 3127 3128 3129 3129 3128 3128 3127 3127 3126 3124 3122 3120 3118 3115 3111 3110 3106 3103 3098 3093 3087 3081 3076 3069 3064 3059 3052 3046 3043 3039
3123 3124 3123 3122 3123 3123 3117 3112 3113 3113 3114 3116 3117 3117 3117 3118 3120 3121 3123 3123 3124 3124 3124 3124 3123 3122 3121 3119 3117 3115 3112 3110 3106 3105 3102 3097 3093 3088 3081 3076 3071 3066 3061 3056 3051 3044 3039 3035 3032
3122 3122 3123 3123 3122 3117 3105 3108 3106 3113 3113 3113 3116 3116 3116 3117 3117 3118 3119 3119 3119 3120 3119 3119 3117 3115 3114 3112 3111 3108 3106 3102 3100 3097 3093 3089 3085 3079 3073 3068 3064 3058 3053 3047 3041 3036 3032 3028 3024
3119 3120 3121 3120 3120 3117 3113 3106 3110 3112 3112 3112 3114 3115 3114 3115 3116 3116 3115 3116 3116 3114 3114 3113 3112 3110 3108 3107 3105 3102 3099 3096 3092 3088 3085 3080 3075 3070 3065 3061 3055 3049 3041 3035 3030 3025 3022 3020 3016
3115 3116 3117 3118 3117 3118 3118 3113 3109 3110 3111 3110 3111 3112 3111 3112 3113 3113 3111 3110 3110 3109 3108 3107 3106 3105 3102 3100 3098 3094 3091 3087 3083 3080 3076 3071 3067 3063 3057 3051 3045 3039 3033 3027 3021 3017 3013 3011 3008
Wind_Speed
13 11 7 7 7 13 20 21 12 4 6 9 7 9 10 14 14 16 15 19 24 24 24 22 19 17 17 14 11 7 6 5 1 3 3 5 5 5 7 9 9 10 10 11 11 11 10 10 10
13 10 9 6 14 20 21 12 4 11 3 7 7 8 13 9 17 12 13 19 27 24 23 20 17 21 18 14 9 7 6 3 1 2 6 6 5 6 9 9 9 10 11 11 11 10 10 10 10
13 12 7 11 18 21 14 4 8 4 4 4 5 14 14 5 14 16 18 29 29 28 22 19 21 19 17 12 9 8 4 0 1 7 6 6 7 8 8 9 9 10 10 10 10 11 12 12 12
11 10 11 14 18 11 9 4 6 5 6 4 10 12 8 7 14 19 27 26 26 22 22 26 21 19 15 11 9 5 1 1 6 6 6 8 8 8 8 8 8 8 9 9 11 12 13 13 13
11 10 16 17 18 10 7 8 12 7 4 3 5 15 18 5 20 24 20 19 19 22 26 25 21 19 15 10 7 3 2 7 7 7 9 8 8 8 8 8 8 10 11 12 13 15 16 16 15
10 11 18 21 15 5 7 10 7 9 8 3 2 2 3 16 14 22 22 22 22 25 26 25 22 17 13 10 6 3 7 9 9 10 9 8 7 6 6 6 9 11 14 14 15 18 18 17 15
14 16 18 20 6 6 10 9 6 7 4 3 3 6 6 7 6 19 28 26 28 22 22 21 17 15 14 9 5 7 11 11 11 10 9 7 5 3 3 6 8 11 12 14 17 19 20 20 17
13 15 19 15 10 11 10 9 8 7 6 6 0 2 9 6 8 6 8 12 14 18 19 20 16 14 11 8 7 11 12 12 12 10 8 5 2 1 4 5 7 9 12 14 15 18 20 20 19
12 15 21 14 19 9 9 9 4 2 2 9 4 4 12 8 9 8 13 14 17 18 16 15 15 12 9 8 11 13 13 14 12 10 7 4 3 3 5 6 8 10 12 14 15 18 21 25 26
15 15 15 3 18 12 11 7 11 10 5 2 3 7 8 8 11 12 14 17 21 18 17 18 13 11 9 10 12 13 15 15 13 10 6 6 6 5 8 9 11 12 14 17 19 21 24 25 26
15 15 7 8 7 4 2 7 14 11 4 7 7 7 5 10 11 15 18 20 18 18 16 12 9 8 9 12 15 16 16 15 11 10 9 8 7 8 10 11 13 16 17 21 25 27 28 32 33
10 14 7 6 8 11 7 10 11 6 10 3 9 5 11 14 17 17 17 17 16 14 11 9 9 11 12 15 16 18 14 15 11 10 10 10 9 10 11 14 16 18 19 21 25 29 34 32 34
12 8 6 9 8 14 13 15 9 4 1 6 8 12 15 17 19 18 16 16 13 11 11 10 10 12 13 15 16 17 14 9 8 10 13 14 15 13 17 16 19 20 23 27 31 36 36 34 35
10 6 10 11 12 12 10 7 4 7 7 10 9 16 16 18 17 17 15 14 12 11 8 8 9 12 14 16 16 16 12 11 10 10 12 19 22 23 26 20 22 25 27 32 34 38 35 35 36
7 12 13 13 11 10 6 7 5 6 8 13 15 16 16 16 16 15 15 15 14 12 9 8 8 10 16 18 20 22 21 8 6 18 26 26 28 24 20 22 27 23 29 33 37 37 38 39 40
10 11 18 12 13 13 13 14 10 10 14 13 15 17 17 17 17 18 18 16 17 15 12 10 10 12 14 18 24 26 24 16 17 18 22 22 21 17 18 23 29 30 34 35 37 39 41 42 42
13 15 8 10 15 12 13 13 11 10 16 16 16 17 18 19 18 19 21 19 17 16 14 14 15 15 18 18 27 24 32 26 10 16 21 20 18 17 21 25 28 32 36 37 37 39 40 43 44
16 5 14 12 12 14 14 7 11 11 18 17 17 17 18 20 20 19 20 19 19 20 16 19 19 18 18 19 15 3 4 10 9 12 16 15 16 19 23 27 30 31 34 36 40 40 41 43 46
9 9 9 11 9 12 14 10 8 15 19 20 19 19 20 22 22 19 21 21 20 22 20 20 20 20 20 11 9 6 8 9 11 14 12 12 16 19 23 28 30 30 36 39 41 42 43 45 46
9 10 9 6 10 11 12 13 12 14 17 20 21 20 20 20 22 22 21 22 23 23 22 22 23 21 13 12 9 9 9 10 11 10 12 16 20 23 26 27 32 35 35 40 43 43 45 45 47
8 6 7 10 14 15 11 15 17 19 15 19 20 20 20 20 23 24 23 24 24 23 20 18 14 12 11 11 9 11 12 12 13 15 18 20 24 28 29 32 33 36 38 40 43 46 47 46 46
10 10 8 8 16 21 20 18 20 20 23 21 21 24 22 21 22 23 21 19 16 15 14 12 12 9 8 11 12 11 12 11 18 20 23 27 29 30 32 35 36 37 39 41 43 43 45 45 45
5 8 7 9 16 12 18 14 22 22 19 19 19 22 22 25 23 21 17 16 15 17 14 11 8 11 12 12 13 13 15 16 19 21 26 28 35 34 35 37 38 38 39 41 43 43 43 42 42
5 5 7 9 15 10 18 18 8 17 15 15 16 18 20 20 20 18 17 18 19 15 12 12 13 13 13 14 16 18 20 23 27 25 27 34 35 34 37 38 39 40 41 42 42 43 41 40 36
6 8 12 8 7 9 3 8 17 9 9 14 17 17 19 20 20 20 20 20 17 14 13 14 14 14 16 18 20 22 25 25 28 30 31 36 33 35 37 37 37 39 39 40 42 43 39 34 28
9 13 13 7 7 8 4 9 5 6 9 9 16 15 17 18 20 21 21 20 16 16 13 14 16 19 20 22 24 26 28 30 31 30 35 34 35 35 36 37 38 39 41 41 40 40 39 30 28
8 10 9 6 6 8 16 13 7 9 8 8 15 17 17 18 20 22 23 21 19 16 16 17 20 22 24 25 28 31 34 36 30 36 36 36 36 35 37 38 39 40 40 39 39 37 34 30 32
10 4 5 8 3 6 5 7 5 2 5 9 15 18 18 19 20 23 23 23 23 21 20 20 22 26 27 30 33 36 38 36 37 38 36 35 35 35 36 38 39 40 40 39 38 33 26 26 31
8 12 9 5 5 3 4 3 4 1 4 8 14 18 19 20 22 22 25 26 26 27 24 25 27 30 31 34 38 41 42 38 36 35 34 35 35 36 38 40 41 40 40 40 35 27 23 28 33
9 10 12 9 6 6 3 8 3 1 0 5 9 16 18 21 22 23 26 29 28 30 30 30 32 33 36 38 42 44 37 34 34 34 34 35 36 38 40 41 41 41 39 37 36 31 32 32 30
Wind_Direction
229 232 237 227 241 249 259 254 228 218 234 217 203 167 193 192 201 204 208 212 184 176 167 167 162 163 153 149 145 143 146 144 107 6 17 105 86 61 59 62 62 58 50 42 36 31 22 12 4
222 219 224 214 249 259 255 227 167 225 154 124 151 137 175 222 198 196 210 195 168 169 166 163 176 162 159 152 146 144 142 130 350 104 117 100 83 79 76 70 62 56 52 46 39 33 25 15 6
219 207 209 244 246 256 294 127 154 136 255 184 174 175 180 152 213 210 189 167 165 164 167 178 174 165 161 151 151 147 139 298 122 122 108 102 97 88 79 72 64 59 49 46 42 35 26 18 7
209 209 223 239 262 265 275 168 164 127 66 198 200 171 133 131 161 173 165 165 163 172 178 185 168 170 160 158 153 142 121 152 129 121 112 111 102 95 83 73 60 49 39 27 27 23 18 16 10
207 203 241 241 254 262 251 205 181 184 168 308 283 255 250 228 157 152 166 183 190 184 178 172 169 167 164 163 152 141 130 144 143 132 128 115 105 92 81 68 55 39 29 25 21 14 8 4 2
214 220 243 248 238 219 220 210 220 238 272 95 62 10 14 248 213 198 206 189 196 192 167 162 167 167 164 164 157 158 160 154 151 145 131 119 108 94 73 49 37 29 23 18 13 7 2 356 351
216 230 246 263 260 223 214 218 184 131 151 322 192 168 267 258 215 216 199 206 180 164 159 159 174 172 169 164 165 176 166 162 157 147 136 132 113 76 27 21 17 15 9 6 3 359 356 347 343
223 246 250 253 237 211 207 203 178 155 209 114 145 333 291 247 230 126 146 113 141 159 159 167 170 170 168 172 185 179 169 165 162 159 154 146 135 346 342 348 355 360 357 356 351 346 345 343 334
218 239 249 226 244 153 173 158 196 174 193 177 269 267 276 237 207 179 154 149 171 160 157 164 173 172 178 181 180 174 169 171 171 173 172 178 217 262 290 322 332 337 333 334 332 333 336 336 331
211 229 249 221 251 231 172 205 183 133 112 214 321 259 293 214 183 189 181 170 163 165 174 174 177 178 175 175 173 176 177 180 185 188 194 225 244 277 301 310 311 313 315 316 318 326 328 327 327
218 230 269 253 225 212 221 203 213 169 194 214 221 271 221 170 169 164 161 165 168 171 174 177 180 178 183 182 183 180 187 191 196 208 225 245 264 276 291 299 299 304 307 314 319 318 320 317 322
212 223 240 245 227 204 162 205 147 177 130 163 229 218 173 160 157 160 159 166 168 171 180 192 204 201 194 186 187 188 197 199 214 233 247 259 270 276 292 295 298 300 302 306 312 310 319 313 314
206 212 219 171 130 131 167 166 199 80 137 178 211 156 158 159 153 157 158 166 179 195 200 200 199 196 194 197 197 197 202 213 242 264 273 284 280 286 291 286 287 293 299 301 309 310 316 310 311
212 185 170 154 168 179 178 195 127 149 130 153 178 158 157 159 161 167 164 172 177 181 181 191 198 200 204 204 202 199 202 219 245 279 299 293 296 275 269 277 285 291 298 300 307 310 308 311 309
215 188 178 164 200 191 179 173 150 162 144 146 149 157 163 166 164 165 172 185 186 189 192 199 213 216 222 222 218 219 217 206 271 307 265 306 266 275 269 286 292 295 302 304 305 307 308 308 307
181 175 181 215 208 207 202 157 174 175 160 150 149 157 163 172 174 186 189 190 201 210 212 219 231 239 255 240 230 230 236 240 261 252 252 266 274 284 288 290 298 307 305 303 307 307 306 305 304
193 188 182 175 211 220 198 204 177 187 176 169 168 168 168 173 175 185 192 198 204 221 225 234 249 260 266 275 261 271 278 259 255 249 262 271 286 293 295 300 304 305 304 304 302 300 300 301 302
185 172 211 196 196 199 200 167 190 193 188 185 182 183 183 189 191 198 199 201 213 230 235 247 257 267 281 293 293 245 238 242 251 254 262 282 292 297 300 305 303 300 298 299 300 301 302 304 305
177 216 211 147 180 197 200 206 207 208 198 198 196 199 199 204 207 207 209 218 226 241 245 252 263 268 277 288 267 244 243 253 253 257 265 287 301 303 301 299 300 301 303 302 301 303 303 302 302
198 226 174 160 189 197 207 215 211 198 203 210 205 207 206 206 222 219 224 231 238 249 257 260 265 267 261 245 251 246 252 252 252 267 285 292 300 302 302 303 302 301 299 298 299 301 303 304 305
232 237 194 215 201 199 208 208 208 221 206 205 212 216 214 213 229 232 234 242 247 254 260 258 244 224 242 250 243 245 247 260 274 281 287 297 305 307 305 302 298 296 299 300 302 305 305 306 305
223 223 203 207 199 212 211 232 204 212 221 229 228 214 212 214 228 241 241 244 232 225 226 219 225 241 253 233 242 250 265 278 281 295 299 308 308 307 301 300 300 302 304 305 303 302 305 306 306
171 222 202 214 243 212 203 252 220 216 206 219 226 226 217 226 235 243 241 215 208 211 214 226 247 269 258 249 262 267 276 282 282 291 300 300 304 307 304 306 308 309 307 307 309 309 310 307 305
239 194 218 238 256 265 266 249 212 213 219 215 206 212 217 215 228 227 221 211 211 217 234 264 265 261 245 267 276 277 286 294 294 293 305 305 307 303 305 306 310 313 313 314 311 308 308 304 311
205 235 246 215 235 247 264 267 259 279 233 230 211 211 206 216 222 224 220 214 219 230 254 259 256 249 258 269 276 281 287 291 292 298 302 309 304 302 301 306 312 314 314 312 311 312 309 305 305
236 258 249 289 296 272 165 253 214 220 277 203 208 204 208 219 222 220 215 220 226 234 261 252 250 251 261 268 277 280 283 285 286 297 309 303 300 302 305 313 316 317 317 316 314 310 307 298 290
236 247 253 282 291 276 266 252 256 270 251 208 203 203 211 217 224 222 220 230 234 250 262 257 259 258 269 274 279 284 285 283 295 309 306 305 304 308 316 319 319 318 316 314 311 307 298 290 294
221 214 237 228 255 253 236 248 94 227 214 205 207 208 209 210 216 222 229 237 245 255 269 266 265 269 277 278 280 283 281 282 304 309 307 302 306 315 318 318 316 317 316 317 316 309 303 291 289
224 234 236 258 250 288 302 85 124 167 216 210 207 216 213 210 212 221 236 247 254 258 273 271 269 272 273 278 281 281 280 302 308 308 304 306 315 318 317 317 317 318 321 323 319 311 294 286 285
233 240 231 230 224 228 289 295 320 267 278 229 222 216 218 216 217 223 242 255 258 263 270 276 275 272 272 281 283 279 294 306 308 304 306 312 316 317 317 318 320 324 321 319 317 308 296 293 289